Year,Month,Day,Hour,Minute,Value (Times are PST for temperature in C)
2014,08,02,00,00,20.30
2014,08,02,00,01,20.30
2014,08,02,00,02,20.30
2014,08,02,00,03,20.20
2014,08,02,00,04,20.20
2014,08,02,00,05,20.20
2014,08,02,00,06,20.20
2014,08,02,00,07,20.20
2014,08,02,00,08,20.20
2014,08,02,00,09,20.10
2014,08,02,00,10,20.10
2014,08,02,00,11,20.10
2014,08,02,00,12,20.10
2014,08,02,00,13,20.10
2014,08,02,00,14,20.10
2014,08,02,00,15,20.10
2014,08,02,00,16,20.10
2014,08,02,00,17,20.10
2014,08,02,00,18,20.10
2014,08,02,00,19,20.10
2014,08,02,00,20,20.10
2014,08,02,00,21,20.10
2014,08,02,00,22,20.10
2014,08,02,00,23,20.10
2014,08,02,00,24,20.10
2014,08,02,00,25,20.00
2014,08,02,00,26,20.00
2014,08,02,00,27,20.00
2014,08,02,00,28,20.00
2014,08,02,00,29,20.00
2014,08,02,00,30,19.90
2014,08,02,00,31,19.90
2014,08,02,00,32,19.90
2014,08,02,00,33,19.90
2014,08,02,00,34,19.90
2014,08,02,00,35,19.80
2014,08,02,00,36,19.80
2014,08,02,00,37,19.80
2014,08,02,00,38,19.80
2014,08,02,00,39,19.80
2014,08,02,00,40,19.70
2014,08,02,00,41,19.70
2014,08,02,00,42,19.70
2014,08,02,00,43,19.70
2014,08,02,00,44,19.70
2014,08,02,00,45,19.60
2014,08,02,00,46,19.60
2014,08,02,00,47,19.60
2014,08,02,00,48,19.60
2014,08,02,00,49,19.60
2014,08,02,00,50,19.50
2014,08,02,00,51,19.50
2014,08,02,00,52,19.50
2014,08,02,00,53,19.40
2014,08,02,00,54,19.40
2014,08,02,00,55,19.40
2014,08,02,00,56,19.40
2014,08,02,00,57,19.30
2014,08,02,00,58,19.30
2014,08,02,00,59,19.30
2014,08,02,01,00,19.30
2014,08,02,01,01,19.20
2014,08,02,01,02,19.20
2014,08,02,01,03,19.20
2014,08,02,01,04,19.20
2014,08,02,01,05,19.10
2014,08,02,01,06,19.10
2014,08,02,01,07,19.00
2014,08,02,01,08,19.00
2014,08,02,01,09,18.90
2014,08,02,01,10,18.90
2014,08,02,01,11,18.90
2014,08,02,01,12,18.80
2014,08,02,01,13,18.80
2014,08,02,01,14,18.70
2014,08,02,01,15,18.70
2014,08,02,01,16,18.70
2014,08,02,01,17,18.70
2014,08,02,01,18,18.60
2014,08,02,01,19,18.60
2014,08,02,01,20,18.60
2014,08,02,01,21,18.60
2014,08,02,01,22,18.50
2014,08,02,01,23,18.50
2014,08,02,01,24,18.50
2014,08,02,01,25,18.40
2014,08,02,01,26,18.40
2014,08,02,01,27,18.40
2014,08,02,01,28,18.40
2014,08,02,01,29,18.40
2014,08,02,01,30,18.30
2014,08,02,01,31,18.30
2014,08,02,01,32,18.30
2014,08,02,01,33,18.30
2014,08,02,01,34,18.30
2014,08,02,01,35,18.20
2014,08,02,01,36,18.20
2014,08,02,01,37,18.20
2014,08,02,01,38,18.20
2014,08,02,01,39,18.20
2014,08,02,01,40,18.20
2014,08,02,01,41,18.10
2014,08,02,01,42,18.10
2014,08,02,01,43,18.10
2014,08,02,01,44,18.10
2014,08,02,01,45,18.10
2014,08,02,01,46,18.10
2014,08,02,01,47,18.10
2014,08,02,01,48,18.00
2014,08,02,01,49,18.00
2014,08,02,01,50,18.00
2014,08,02,01,51,18.00
2014,08,02,01,52,17.90
2014,08,02,01,53,17.90
2014,08,02,01,54,17.90
2014,08,02,01,55,17.90
2014,08,02,01,56,17.90
2014,08,02,01,57,17.90
2014,08,02,01,58,17.80
2014,08,02,01,59,17.80
2014,08,02,02,00,17.80
2014,08,02,02,01,17.80
2014,08,02,02,02,17.80
2014,08,02,02,03,17.70
2014,08,02,02,04,17.70
2014,08,02,02,05,17.70
2014,08,02,02,06,17.70
2014,08,02,02,07,17.60
2014,08,02,02,08,17.60
2014,08,02,02,09,17.60
2014,08,02,02,10,17.60
2014,08,02,02,11,17.60
2014,08,02,02,12,17.60
2014,08,02,02,13,17.60
2014,08,02,02,14,17.60
2014,08,02,02,15,17.70
2014,08,02,02,16,17.70
2014,08,02,02,17,17.70
2014,08,02,02,18,17.70
2014,08,02,02,19,17.70
2014,08,02,02,20,17.70
2014,08,02,02,21,17.70
2014,08,02,02,22,17.70
2014,08,02,02,23,17.70
2014,08,02,02,24,17.70
2014,08,02,02,25,17.70
2014,08,02,02,26,17.70
2014,08,02,02,27,17.70
2014,08,02,02,28,17.70
2014,08,02,02,29,17.80
2014,08,02,02,30,17.80
2014,08,02,02,31,17.80
2014,08,02,02,32,17.70
2014,08,02,02,33,17.70
2014,08,02,02,34,17.70
2014,08,02,02,35,17.70
2014,08,02,02,36,17.70
2014,08,02,02,37,17.70
2014,08,02,02,38,17.70
2014,08,02,02,39,17.70
2014,08,02,02,40,17.70
2014,08,02,02,41,17.70
2014,08,02,02,42,17.70
2014,08,02,02,43,17.70
2014,08,02,02,44,17.70
2014,08,02,02,45,17.70
2014,08,02,02,46,17.80
2014,08,02,02,47,17.80
2014,08,02,02,48,17.80
2014,08,02,02,49,17.80
2014,08,02,02,50,17.80
2014,08,02,02,51,17.80
2014,08,02,02,52,17.80
2014,08,02,02,53,17.80
2014,08,02,02,54,17.80
2014,08,02,02,55,17.80
2014,08,02,02,56,17.80
2014,08,02,02,57,17.80
2014,08,02,02,58,17.80
2014,08,02,02,59,17.80
2014,08,02,03,00,17.80
2014,08,02,03,01,17.80
2014,08,02,03,02,17.80
2014,08,02,03,03,17.80
2014,08,02,03,04,17.80
2014,08,02,03,05,17.80
2014,08,02,03,06,17.80
2014,08,02,03,07,17.80
2014,08,02,03,08,17.80
2014,08,02,03,09,17.80
2014,08,02,03,10,17.80
2014,08,02,03,11,17.80
2014,08,02,03,12,17.80
2014,08,02,03,13,17.80
2014,08,02,03,14,17.80
2014,08,02,03,15,17.80
2014,08,02,03,16,17.80
2014,08,02,03,17,17.80
2014,08,02,03,18,17.80
2014,08,02,03,19,17.80
2014,08,02,03,20,17.80
2014,08,02,03,21,17.80
2014,08,02,03,22,17.80
2014,08,02,03,23,17.80
2014,08,02,03,24,17.80
2014,08,02,03,25,17.80
2014,08,02,03,26,17.70
2014,08,02,03,27,17.70
2014,08,02,03,28,17.70
2014,08,02,03,29,17.70
2014,08,02,03,30,17.70
2014,08,02,03,31,17.70
2014,08,02,03,32,17.60
2014,08,02,03,33,17.60
2014,08,02,03,34,17.60
2014,08,02,03,35,17.60
2014,08,02,03,36,17.50
2014,08,02,03,37,17.50
2014,08,02,03,38,17.50
2014,08,02,03,39,17.40
2014,08,02,03,40,17.40
2014,08,02,03,41,17.40
2014,08,02,03,42,17.40
2014,08,02,03,43,17.30
2014,08,02,03,44,17.30
2014,08,02,03,45,17.30
2014,08,02,03,46,17.30
2014,08,02,03,47,17.20
2014,08,02,03,48,17.20
2014,08,02,03,49,17.20
2014,08,02,03,50,17.10
2014,08,02,03,51,17.10
2014,08,02,03,52,17.10
2014,08,02,03,53,17.10
2014,08,02,03,54,17.00
2014,08,02,03,55,17.00
2014,08,02,03,56,16.90
2014,08,02,03,57,16.90
2014,08,02,03,58,16.90
2014,08,02,03,59,16.90
2014,08,02,04,00,16.80
2014,08,02,04,01,16.80
2014,08,02,04,02,16.80
2014,08,02,04,03,16.80
2014,08,02,04,04,16.80
2014,08,02,04,05,16.80
2014,08,02,04,06,16.80
2014,08,02,04,07,16.80
2014,08,02,04,08,16.70
2014,08,02,04,09,16.70
2014,08,02,04,10,16.70
2014,08,02,04,11,16.70
2014,08,02,04,12,16.70
2014,08,02,04,13,16.70
2014,08,02,04,14,16.60
2014,08,02,04,15,16.60
2014,08,02,04,16,16.60
2014,08,02,04,17,16.60
2014,08,02,04,18,16.60
2014,08,02,04,19,16.50
2014,08,02,04,20,16.50
2014,08,02,04,21,16.50
2014,08,02,04,22,16.40
2014,08,02,04,23,16.40
2014,08,02,04,24,16.40
2014,08,02,04,25,16.40
2014,08,02,04,26,16.30
2014,08,02,04,27,16.30
2014,08,02,04,28,16.30
2014,08,02,04,29,16.20
2014,08,02,04,30,16.20
2014,08,02,04,31,16.20
2014,08,02,04,32,16.20
2014,08,02,04,33,16.20
2014,08,02,04,34,16.20
2014,08,02,04,35,16.30
2014,08,02,04,36,16.30
2014,08,02,04,37,16.30
2014,08,02,04,38,16.30
2014,08,02,04,39,16.30
2014,08,02,04,40,16.30
2014,08,02,04,41,16.30
2014,08,02,04,42,16.30
2014,08,02,04,43,16.30
2014,08,02,04,44,16.30
2014,08,02,04,45,16.30
2014,08,02,04,46,16.30
2014,08,02,04,47,16.30
2014,08,02,04,48,16.30
2014,08,02,04,49,16.30
2014,08,02,04,50,16.30
2014,08,02,04,51,16.30
2014,08,02,04,52,16.30
2014,08,02,04,53,16.30
2014,08,02,04,54,16.30
2014,08,02,04,55,16.30
2014,08,02,04,56,16.30
2014,08,02,04,57,16.30
2014,08,02,04,58,16.30
2014,08,02,04,59,16.30
2014,08,02,05,00,16.30
2014,08,02,05,01,16.30
2014,08,02,05,02,16.30
2014,08,02,05,03,16.30
2014,08,02,05,04,16.30
2014,08,02,05,05,16.30
2014,08,02,05,06,16.30
2014,08,02,05,07,16.30
2014,08,02,05,08,16.30
2014,08,02,05,09,16.30
2014,08,02,05,10,16.30
2014,08,02,05,11,16.30
2014,08,02,05,12,16.30
2014,08,02,05,13,16.20
2014,08,02,05,14,16.20
2014,08,02,05,15,16.20
2014,08,02,05,16,16.10
2014,08,02,05,17,16.10
2014,08,02,05,18,16.10
2014,08,02,05,19,16.00
2014,08,02,05,20,16.00
2014,08,02,05,21,15.90
2014,08,02,05,22,15.90
2014,08,02,05,23,15.90
2014,08,02,05,24,15.90
2014,08,02,05,25,15.80
2014,08,02,05,26,15.80
2014,08,02,05,27,15.80
2014,08,02,05,28,15.70
2014,08,02,05,29,15.70
2014,08,02,05,30,15.70
2014,08,02,05,31,15.70
2014,08,02,05,32,15.60
2014,08,02,05,33,15.60
2014,08,02,05,34,15.60
2014,08,02,05,35,15.50
2014,08,02,05,36,15.50
2014,08,02,05,37,15.50
2014,08,02,05,38,15.40
2014,08,02,05,39,15.40
2014,08,02,05,40,15.40
2014,08,02,05,41,15.40
2014,08,02,05,42,15.40
2014,08,02,05,43,15.40
2014,08,02,05,44,15.40
2014,08,02,05,45,15.40
2014,08,02,05,46,15.30
2014,08,02,05,47,15.30
2014,08,02,05,48,15.30
2014,08,02,05,49,15.30
2014,08,02,05,50,15.30
2014,08,02,05,51,15.20
2014,08,02,05,52,15.20
2014,08,02,05,53,15.10
2014,08,02,05,54,15.10
2014,08,02,05,55,15.00
2014,08,02,05,56,15.00
2014,08,02,05,57,14.90
2014,08,02,05,58,14.90
2014,08,02,05,59,14.80
2014,08,02,06,00,14.80
2014,08,02,06,01,14.70
2014,08,02,06,02,14.70
2014,08,02,06,03,14.70
2014,08,02,06,04,14.60
2014,08,02,06,05,14.60
2014,08,02,06,06,14.60
2014,08,02,06,07,14.60
2014,08,02,06,08,14.60
2014,08,02,06,09,14.50
2014,08,02,06,10,14.50
2014,08,02,06,11,14.50
2014,08,02,06,12,14.40
2014,08,02,06,13,14.40
2014,08,02,06,14,14.30
2014,08,02,06,15,14.30
2014,08,02,06,16,14.30
2014,08,02,06,17,14.30
2014,08,02,06,18,14.30
2014,08,02,06,19,14.30
2014,08,02,06,20,14.30
2014,08,02,06,21,14.20
2014,08,02,06,22,14.20
2014,08,02,06,23,14.20
2014,08,02,06,24,14.20
2014,08,02,06,25,14.20
2014,08,02,06,26,14.20
2014,08,02,06,27,14.20
2014,08,02,06,28,14.20
2014,08,02,06,29,14.20
2014,08,02,06,30,14.20
2014,08,02,06,31,14.20
2014,08,02,06,32,14.30
2014,08,02,06,33,14.30
2014,08,02,06,34,14.30
2014,08,02,06,35,14.30
2014,08,02,06,36,14.40
2014,08,02,06,37,14.40
2014,08,02,06,38,14.50
2014,08,02,06,39,14.50
2014,08,02,06,40,14.50
2014,08,02,06,41,14.60
2014,08,02,06,42,14.60
2014,08,02,06,43,14.60
2014,08,02,06,44,14.70
2014,08,02,06,45,14.70
2014,08,02,06,46,14.80
2014,08,02,06,47,14.80
2014,08,02,06,48,14.90
2014,08,02,06,49,15.00
2014,08,02,06,50,15.10
2014,08,02,06,51,15.20
2014,08,02,06,52,15.20
2014,08,02,06,53,15.30
2014,08,02,06,54,15.30
2014,08,02,06,55,15.30
2014,08,02,06,56,15.30
2014,08,02,06,57,15.30
2014,08,02,06,58,15.40
2014,08,02,06,59,15.40
2014,08,02,07,00,15.50
2014,08,02,07,01,15.50
2014,08,02,07,02,15.60
2014,08,02,07,03,15.60
2014,08,02,07,04,15.60
2014,08,02,07,05,15.70
2014,08,02,07,06,15.80
2014,08,02,07,07,15.80
2014,08,02,07,08,15.90
2014,08,02,07,09,16.00
2014,08,02,07,10,16.10
2014,08,02,07,11,16.20
2014,08,02,07,12,16.20
2014,08,02,07,13,16.30
2014,08,02,07,14,16.40
2014,08,02,07,15,16.50
2014,08,02,07,16,16.60
2014,08,02,07,17,16.70
2014,08,02,07,18,16.70
2014,08,02,07,19,16.80
2014,08,02,07,20,16.90
2014,08,02,07,21,17.00
2014,08,02,07,22,17.10
2014,08,02,07,23,17.20
2014,08,02,07,24,17.30
2014,08,02,07,25,17.40
2014,08,02,07,26,17.50
2014,08,02,07,27,17.60
2014,08,02,07,28,17.60
2014,08,02,07,29,17.60
2014,08,02,07,30,17.70
2014,08,02,07,31,17.70
2014,08,02,07,32,17.80
2014,08,02,07,33,17.80
2014,08,02,07,34,17.90
2014,08,02,07,35,18.00
2014,08,02,07,36,18.00
2014,08,02,07,37,18.10
2014,08,02,07,38,18.20
2014,08,02,07,39,18.20
2014,08,02,07,40,18.30
2014,08,02,07,41,18.30
2014,08,02,07,42,18.30
2014,08,02,07,43,18.40
2014,08,02,07,44,18.50
2014,08,02,07,45,18.50
2014,08,02,07,46,18.60
2014,08,02,07,47,18.60
2014,08,02,07,48,18.70
2014,08,02,07,49,18.70
2014,08,02,07,50,18.70
2014,08,02,07,51,18.80
2014,08,02,07,52,18.80
2014,08,02,07,53,18.80
2014,08,02,07,54,18.70
2014,08,02,07,55,18.70
2014,08,02,07,56,18.80
2014,08,02,07,57,18.80
2014,08,02,07,58,18.80
2014,08,02,07,59,18.90
2014,08,02,08,00,18.90
2014,08,02,08,01,19.00
2014,08,02,08,02,19.00
2014,08,02,08,03,19.10
2014,08,02,08,04,19.20
2014,08,02,08,05,19.30
2014,08,02,08,06,19.30
2014,08,02,08,07,19.40
2014,08,02,08,08,19.40
2014,08,02,08,09,19.40
2014,08,02,08,10,19.50
2014,08,02,08,11,19.50
2014,08,02,08,12,19.60
2014,08,02,08,13,19.60
2014,08,02,08,14,19.60
2014,08,02,08,15,19.70
2014,08,02,08,16,19.70
2014,08,02,08,17,19.70
2014,08,02,08,18,19.70
2014,08,02,08,19,19.70
2014,08,02,08,20,19.80
2014,08,02,08,21,19.90
2014,08,02,08,22,19.90
2014,08,02,08,23,20.00
2014,08,02,08,24,20.10
2014,08,02,08,25,20.10
2014,08,02,08,26,20.10
2014,08,02,08,27,20.10
2014,08,02,08,28,20.00
2014,08,02,08,29,20.00
2014,08,02,08,30,20.10
2014,08,02,08,31,20.10
2014,08,02,08,32,20.10
2014,08,02,08,33,20.10
2014,08,02,08,34,20.10
2014,08,02,08,35,20.20
2014,08,02,08,36,20.20
2014,08,02,08,37,20.10
2014,08,02,08,38,20.20
2014,08,02,08,39,20.20
2014,08,02,08,40,20.20
2014,08,02,08,41,20.20
2014,08,02,08,42,20.20
2014,08,02,08,43,20.20
2014,08,02,08,44,20.30
2014,08,02,08,45,20.30
2014,08,02,08,46,20.30
2014,08,02,08,47,20.30
2014,08,02,08,48,20.30
2014,08,02,08,49,20.20
2014,08,02,08,50,20.20
2014,08,02,08,51,20.10
2014,08,02,08,52,20.10
2014,08,02,08,53,20.20
2014,08,02,08,54,20.20
2014,08,02,08,55,20.20
2014,08,02,08,56,20.20
2014,08,02,08,57,20.30
2014,08,02,08,58,20.30
2014,08,02,08,59,20.30
2014,08,02,09,00,20.30
2014,08,02,09,01,20.40
2014,08,02,09,02,20.40
2014,08,02,09,03,20.40
2014,08,02,09,04,20.50
2014,08,02,09,05,20.50
2014,08,02,09,06,20.50
2014,08,02,09,07,20.50
2014,08,02,09,08,20.60
2014,08,02,09,09,20.60
2014,08,02,09,10,20.60
2014,08,02,09,11,20.70
2014,08,02,09,12,20.70
2014,08,02,09,13,20.80
2014,08,02,09,14,20.90
2014,08,02,09,15,21.00
2014,08,02,09,16,21.10
2014,08,02,09,17,21.20
2014,08,02,09,18,21.20
2014,08,02,09,19,21.30
2014,08,02,09,20,21.30
2014,08,02,09,21,21.30
2014,08,02,09,22,21.30
2014,08,02,09,23,21.30
2014,08,02,09,24,21.20
2014,08,02,09,25,21.20
2014,08,02,09,26,21.10
2014,08,02,09,27,21.00
2014,08,02,09,28,20.90
2014,08,02,09,29,20.90
2014,08,02,09,30,20.90
2014,08,02,09,31,20.80
2014,08,02,09,32,20.80
2014,08,02,09,33,20.80
2014,08,02,09,34,20.80
2014,08,02,09,35,20.80
2014,08,02,09,36,20.80
2014,08,02,09,37,20.80
2014,08,02,09,38,20.80
2014,08,02,09,39,20.80
2014,08,02,09,40,20.80
2014,08,02,09,41,20.90
2014,08,02,09,42,20.90
2014,08,02,09,43,20.90
2014,08,02,09,44,20.90
2014,08,02,09,45,20.90
2014,08,02,09,46,21.00
2014,08,02,09,47,21.00
2014,08,02,09,48,21.10
2014,08,02,09,49,21.20
2014,08,02,09,50,21.20
2014,08,02,09,51,21.20
2014,08,02,09,52,21.20
2014,08,02,09,53,21.20
2014,08,02,09,54,21.20
2014,08,02,09,55,21.20
2014,08,02,09,56,21.30
2014,08,02,09,57,21.30
2014,08,02,09,58,21.30
2014,08,02,09,59,21.30
2014,08,02,10,00,21.30
2014,08,02,10,01,21.30
2014,08,02,10,02,21.30
2014,08,02,10,03,21.30
2014,08,02,10,04,21.40
2014,08,02,10,05,21.40
2014,08,02,10,06,21.50
2014,08,02,10,07,21.50
2014,08,02,10,08,21.50
2014,08,02,10,09,21.60
2014,08,02,10,10,21.60
2014,08,02,10,11,21.60
2014,08,02,10,12,21.60
2014,08,02,10,13,21.70
2014,08,02,10,14,21.80
2014,08,02,10,15,21.90
2014,08,02,10,16,22.00
2014,08,02,10,17,22.10
2014,08,02,10,18,22.20
2014,08,02,10,19,22.30
2014,08,02,10,20,22.40
2014,08,02,10,21,22.50
2014,08,02,10,22,22.60
2014,08,02,10,23,22.70
2014,08,02,10,24,22.80
2014,08,02,10,25,23.00
2014,08,02,10,26,23.10
2014,08,02,10,27,23.10
2014,08,02,10,28,23.10
2014,08,02,10,29,23.20
2014,08,02,10,30,23.30
2014,08,02,10,31,23.30
2014,08,02,10,32,23.40
2014,08,02,10,33,23.40
2014,08,02,10,34,23.30
2014,08,02,10,35,23.30
2014,08,02,10,36,23.20
2014,08,02,10,37,23.20
2014,08,02,10,38,23.20
2014,08,02,10,39,23.20
2014,08,02,10,40,23.20
2014,08,02,10,41,23.20
2014,08,02,10,42,23.20
2014,08,02,10,43,23.30
2014,08,02,10,44,23.40
2014,08,02,10,45,23.40
2014,08,02,10,46,23.50
2014,08,02,10,47,23.50
2014,08,02,10,48,23.40
2014,08,02,10,49,23.40
2014,08,02,10,50,23.40
2014,08,02,10,51,23.40
2014,08,02,10,52,23.40
2014,08,02,10,53,23.40
2014,08,02,10,54,23.30
2014,08,02,10,55,23.30
2014,08,02,10,56,23.30
2014,08,02,10,57,23.20
2014,08,02,10,58,23.20
2014,08,02,10,59,23.20
2014,08,02,11,00,23.10
2014,08,02,11,01,23.10
2014,08,02,11,02,23.10
2014,08,02,11,03,23.10
2014,08,02,11,04,23.10
2014,08,02,11,05,23.10
2014,08,02,11,06,23.10
2014,08,02,11,07,23.10
2014,08,02,11,08,23.10
2014,08,02,11,09,23.20
2014,08,02,11,10,23.20
2014,08,02,11,11,23.20
2014,08,02,11,12,23.20
2014,08,02,11,13,23.20
2014,08,02,11,14,23.20
2014,08,02,11,15,23.20
2014,08,02,11,16,23.20
2014,08,02,11,17,23.20
2014,08,02,11,18,23.30
2014,08,02,11,19,23.30
2014,08,02,11,20,23.30
2014,08,02,11,21,23.30
2014,08,02,11,22,23.30
2014,08,02,11,23,23.40
2014,08,02,11,24,23.40
2014,08,02,11,25,23.40
2014,08,02,11,26,23.50
2014,08,02,11,27,23.50
2014,08,02,11,28,23.60
2014,08,02,11,29,23.60
2014,08,02,11,30,23.60
2014,08,02,11,31,23.60
2014,08,02,11,32,23.70
2014,08,02,11,33,23.70
2014,08,02,11,34,23.60
2014,08,02,11,35,23.60
2014,08,02,11,36,23.60
2014,08,02,11,37,23.60
2014,08,02,11,38,23.60
2014,08,02,11,39,23.60
2014,08,02,11,40,23.60
2014,08,02,11,41,23.60
2014,08,02,11,42,23.70
2014,08,02,11,43,23.70
2014,08,02,11,44,23.80
2014,08,02,11,45,23.90
2014,08,02,11,46,23.90
2014,08,02,11,47,23.90
2014,08,02,11,48,23.90
2014,08,02,11,49,23.90
2014,08,02,11,50,24.00
2014,08,02,11,51,24.00
2014,08,02,11,52,24.00
2014,08,02,11,53,23.90
2014,08,02,11,54,23.90
2014,08,02,11,55,23.90
2014,08,02,11,56,23.90
2014,08,02,11,57,24.00
2014,08,02,11,58,24.00
2014,08,02,11,59,24.10
2014,08,02,12,00,24.20
2014,08,02,12,01,24.20
2014,08,02,12,02,24.30
2014,08,02,12,03,24.40
2014,08,02,12,04,24.40
2014,08,02,12,05,24.40
2014,08,02,12,06,24.40
2014,08,02,12,07,24.30
2014,08,02,12,08,24.30
2014,08,02,12,09,24.30
2014,08,02,12,10,24.30
2014,08,02,12,11,24.30
2014,08,02,12,12,24.40
2014,08,02,12,13,24.50
2014,08,02,12,14,24.70
2014,08,02,12,15,24.80
2014,08,02,12,16,24.90
2014,08,02,12,17,24.90
2014,08,02,12,18,24.90
2014,08,02,12,19,24.90
2014,08,02,12,20,24.90
2014,08,02,12,21,24.80
2014,08,02,12,22,24.80
2014,08,02,12,23,24.80
2014,08,02,12,24,24.80
2014,08,02,12,25,24.90
2014,08,02,12,26,24.90
2014,08,02,12,27,25.00
2014,08,02,12,28,25.00
2014,08,02,12,29,25.10
2014,08,02,12,30,25.10
2014,08,02,12,31,25.10
2014,08,02,12,32,25.20
2014,08,02,12,33,25.20
2014,08,02,12,34,25.10
2014,08,02,12,35,25.00
2014,08,02,12,36,24.90
2014,08,02,12,37,24.80
2014,08,02,12,38,24.80
2014,08,02,12,39,24.80
2014,08,02,12,40,24.80
2014,08,02,12,41,24.90
2014,08,02,12,42,24.80
2014,08,02,12,43,24.90
2014,08,02,12,44,24.90
2014,08,02,12,45,25.00
2014,08,02,12,46,25.00
2014,08,02,12,47,25.00
2014,08,02,12,48,25.10
2014,08,02,12,49,25.10
2014,08,02,12,50,25.10
2014,08,02,12,51,25.10
2014,08,02,12,52,25.10
2014,08,02,12,53,25.10
2014,08,02,12,54,25.10
2014,08,02,12,55,25.10
2014,08,02,12,56,25.20
2014,08,02,12,57,25.20
2014,08,02,12,58,25.30
2014,08,02,12,59,25.30
2014,08,02,13,00,25.40
2014,08,02,13,01,25.40
2014,08,02,13,02,25.40
2014,08,02,13,03,25.30
2014,08,02,13,04,25.30
2014,08,02,13,05,25.30
2014,08,02,13,06,25.30
2014,08,02,13,07,25.40
2014,08,02,13,08,25.40
2014,08,02,13,09,25.50
2014,08,02,13,10,25.50
2014,08,02,13,11,25.50
2014,08,02,13,12,25.50
2014,08,02,13,13,25.40
2014,08,02,13,14,25.40
2014,08,02,13,15,25.40
2014,08,02,13,16,25.40
2014,08,02,13,17,25.40
2014,08,02,13,18,25.50
2014,08,02,13,19,25.60
2014,08,02,13,20,25.70
2014,08,02,13,21,25.80
2014,08,02,13,22,25.80
2014,08,02,13,23,25.80
2014,08,02,13,24,25.80
2014,08,02,13,25,25.80
2014,08,02,13,26,25.90
2014,08,02,13,27,25.90
2014,08,02,13,28,25.90
2014,08,02,13,29,26.00
2014,08,02,13,30,26.00
2014,08,02,13,31,26.10
2014,08,02,13,32,26.20
2014,08,02,13,33,26.20
2014,08,02,13,34,26.20
2014,08,02,13,35,26.20
2014,08,02,13,36,26.20
2014,08,02,13,37,26.30
2014,08,02,13,38,26.30
2014,08,02,13,39,26.20
2014,08,02,13,40,26.30
2014,08,02,13,41,26.30
2014,08,02,13,42,26.30
2014,08,02,13,43,26.30
2014,08,02,13,44,26.30
2014,08,02,13,45,26.20
2014,08,02,13,46,26.20
2014,08,02,13,47,26.30
2014,08,02,13,48,26.40
2014,08,02,13,49,26.50
2014,08,02,13,50,26.60
2014,08,02,13,51,26.70
2014,08,02,13,52,26.70
2014,08,02,13,53,26.60
2014,08,02,13,54,26.50
2014,08,02,13,55,26.40
2014,08,02,13,56,26.40
2014,08,02,13,57,26.40
2014,08,02,13,58,26.40
2014,08,02,13,59,26.40
2014,08,02,14,00,26.40
2014,08,02,14,01,26.50
2014,08,02,14,02,26.40
2014,08,02,14,03,26.40
2014,08,02,14,04,26.50
2014,08,02,14,05,26.50
2014,08,02,14,06,26.60
2014,08,02,14,07,26.60
2014,08,02,14,08,26.70
2014,08,02,14,09,26.70
2014,08,02,14,10,26.70
2014,08,02,14,11,26.70
2014,08,02,14,12,26.70
2014,08,02,14,13,26.80
2014,08,02,14,14,26.80
2014,08,02,14,15,26.80
2014,08,02,14,16,26.80
2014,08,02,14,17,26.80
2014,08,02,14,18,26.80
2014,08,02,14,19,26.80
2014,08,02,14,20,26.80
2014,08,02,14,21,26.80
2014,08,02,14,22,26.80
2014,08,02,14,23,26.80
2014,08,02,14,24,26.80
2014,08,02,14,25,26.90
2014,08,02,14,26,27.00
2014,08,02,14,27,27.10
2014,08,02,14,28,27.10
2014,08,02,14,29,27.10
2014,08,02,14,30,27.00
2014,08,02,14,31,27.00
2014,08,02,14,32,27.10
2014,08,02,14,33,27.10
2014,08,02,14,34,27.10
2014,08,02,14,35,27.10
2014,08,02,14,36,27.10
2014,08,02,14,37,27.10
2014,08,02,14,38,27.10
2014,08,02,14,39,27.10
2014,08,02,14,40,27.10
2014,08,02,14,41,27.10
2014,08,02,14,42,27.10
2014,08,02,14,43,27.10
2014,08,02,14,44,27.10
2014,08,02,14,45,27.10
2014,08,02,14,46,27.10
2014,08,02,14,47,27.10
2014,08,02,14,48,27.10
2014,08,02,14,49,27.10
2014,08,02,14,50,27.10
2014,08,02,14,51,27.20
2014,08,02,14,52,27.30
2014,08,02,14,53,27.30
2014,08,02,14,54,27.30
2014,08,02,14,55,27.30
2014,08,02,14,56,27.30
2014,08,02,14,57,27.30
2014,08,02,14,58,27.40
2014,08,02,14,59,27.40
2014,08,02,15,00,27.50
2014,08,02,15,01,27.60
2014,08,02,15,02,27.60
2014,08,02,15,03,27.60
2014,08,02,15,04,27.70
2014,08,02,15,05,27.60
2014,08,02,15,06,27.60
2014,08,02,15,07,27.60
2014,08,02,15,08,27.60
2014,08,02,15,09,27.70
2014,08,02,15,10,27.70
2014,08,02,15,11,27.70
2014,08,02,15,12,27.70
2014,08,02,15,13,27.70
2014,08,02,15,14,27.70
2014,08,02,15,15,27.70
2014,08,02,15,16,27.60
2014,08,02,15,17,27.60
2014,08,02,15,18,27.60
2014,08,02,15,19,27.60
2014,08,02,15,20,27.60
2014,08,02,15,21,27.60
2014,08,02,15,22,27.60
2014,08,02,15,23,27.60
2014,08,02,15,24,27.70
2014,08,02,15,25,27.70
2014,08,02,15,26,27.80
2014,08,02,15,27,27.80
2014,08,02,15,28,27.80
2014,08,02,15,29,27.80
2014,08,02,15,30,27.90
2014,08,02,15,31,27.90
2014,08,02,15,32,27.90
2014,08,02,15,33,27.90
2014,08,02,15,34,27.90
2014,08,02,15,35,27.90
2014,08,02,15,36,27.90
2014,08,02,15,37,27.90
2014,08,02,15,38,27.90
2014,08,02,15,39,27.80
2014,08,02,15,40,27.80
2014,08,02,15,41,27.80
2014,08,02,15,42,27.90
2014,08,02,15,43,27.90
2014,08,02,15,44,28.00
2014,08,02,15,45,28.00
2014,08,02,15,46,28.10
2014,08,02,15,47,28.00
2014,08,02,15,48,28.00
2014,08,02,15,49,27.90
2014,08,02,15,50,27.90
2014,08,02,15,51,28.00
2014,08,02,15,52,28.10
2014,08,02,15,53,28.10
2014,08,02,15,54,28.10
2014,08,02,15,55,28.10
2014,08,02,15,56,28.00
2014,08,02,15,57,28.00
2014,08,02,15,58,28.00
2014,08,02,15,59,28.00
2014,08,02,16,00,28.00
2014,08,02,16,01,28.00
2014,08,02,16,02,28.00
2014,08,02,16,03,28.00
2014,08,02,16,04,28.00
2014,08,02,16,05,28.00
2014,08,02,16,06,28.00
2014,08,02,16,07,28.00
2014,08,02,16,08,28.10
2014,08,02,16,09,28.10
2014,08,02,16,10,28.20
2014,08,02,16,11,28.20
2014,08,02,16,12,28.10
2014,08,02,16,13,28.10
2014,08,02,16,14,28.10
2014,08,02,16,15,28.20
2014,08,02,16,16,28.20
2014,08,02,16,17,28.20
2014,08,02,16,18,28.20
2014,08,02,16,19,28.10
2014,08,02,16,20,28.10
2014,08,02,16,21,28.00
2014,08,02,16,22,28.00
2014,08,02,16,23,28.00
2014,08,02,16,24,28.10
2014,08,02,16,25,28.10
2014,08,02,16,26,28.20
2014,08,02,16,27,28.30
2014,08,02,16,28,28.30
2014,08,02,16,29,28.30
2014,08,02,16,30,28.40
2014,08,02,16,31,28.40
2014,08,02,16,32,28.50
2014,08,02,16,33,28.50
2014,08,02,16,34,28.40
2014,08,02,16,35,28.40
2014,08,02,16,36,28.40
2014,08,02,16,37,28.40
2014,08,02,16,38,28.30
2014,08,02,16,39,28.30
2014,08,02,16,40,28.30
2014,08,02,16,41,28.30
2014,08,02,16,42,28.30
2014,08,02,16,43,28.30
2014,08,02,16,44,28.30
2014,08,02,16,45,28.30
2014,08,02,16,46,28.30
2014,08,02,16,47,28.40
2014,08,02,16,48,28.50
2014,08,02,16,49,28.50
2014,08,02,16,50,28.60
2014,08,02,16,51,28.70
2014,08,02,16,52,28.80
2014,08,02,16,53,28.80
2014,08,02,16,54,28.80
2014,08,02,16,55,28.80
2014,08,02,16,56,28.70
2014,08,02,16,57,28.70
2014,08,02,16,58,28.70
2014,08,02,16,59,28.70
2014,08,02,17,00,28.70
2014,08,02,17,01,28.70
2014,08,02,17,02,28.70
2014,08,02,17,03,28.70
2014,08,02,17,04,28.60
2014,08,02,17,05,28.60
2014,08,02,17,06,28.60
2014,08,02,17,07,28.60
2014,08,02,17,08,28.60
2014,08,02,17,09,28.70
2014,08,02,17,10,28.70
2014,08,02,17,11,28.70
2014,08,02,17,12,28.70
2014,08,02,17,13,28.70
2014,08,02,17,14,28.70
2014,08,02,17,15,28.70
2014,08,02,17,16,28.70
2014,08,02,17,17,28.70
2014,08,02,17,18,28.80
2014,08,02,17,19,28.80